Погода в Тумнине

Погода в Тумнине : погода сейчас, прогноз погоды и архив. Всё, что Вы хотите узнать о погоде в Тумнине!

Поиск расширенной информации на нашем сайте:

Другие новости

Новости СМИ2

Главная страница сайта

Новости сайта

03.07.2017

Напоминаем, что на нашем специализированном сайте Метеоцентр.Азия вы можете получить высокодетализированные автоматические прогнозы погоды по пунктам России, СНГ и мира в авиационном формате (включающие направление и скорость ветра, видимость, явления погоды, количество и форму облачности, нижнюю и верхнюю границу облачности).


Погода в Тумнине - сегодня

Время (UTC), дата Ветер
(°,м/с) 
Видим.   Явления Облачность Т
(°С)
Тd
(°С)
f(%) Тe
(°С)
Pmin
(гПа)
dP
(гПа)
Po
(мм)
O2
(г/м3)
Тmin Tmax R s Состояние
почвы
18 16.02.18 тихо ()   20000 м    ясно 
-29 -32.2 74 -29  1010.1  -0.2  751  341           
03 17.02.18 тихо ()   20000 м  {снег}  8/0 средняя, верхняя 
[Ac trans|Cs]
-12.8 -22.7 43 -13  1009.9  -1.4  752  319           
06 17.02.18 120 (ЮВ) 20000 м  {снег}  8/0 средняя, верхняя 
[Ac trans|Ci fib]
-10.5 -22.9 35 -10  1008.8    751  316           
12 17.02.18 тихо ()   20000 м    4/0 верхняя 
[Ci fib]
-23 -25.9 77 -23  1014.2  2.6  755  334           
15 17.02.18 тихо ()   20000 м    ясно 
-26.3 -29.2 76 -26  1015.2  0.9  755  339           
18 17.02.18 тихо ()   20000 м    ясно 
-28 -31.3 73 -28  1016.3  1.1  756  341           
00 18.02.18 060 (СВ) 20000 м    ясно 
-22.1 -26.4 68 -22  1018.3  0.6  758  334  -29.9         
03 18.02.18 060 (СВ) 20000 м    ясно 
-9.2 -22.4 33 -9  1016.2  -1.7  756  317           
06 18.02.18 240 (ЮЗ) 20000 м    ясно 
-7.1 -21.4 31 -9  1014.8  -1.3  755  314           
09 18.02.18 300 (СЗ) 20000 м    ясно 
-14.2 -20.3 60 -14  1016.2  1.2  756  323           
12 18.02.18 тихо ()   20000 м    4/0 средняя 
[Ac trans]
-19.7 -23.4 72 -20  1016.6  0.3  757  330           
15 18.02.18 070 (В) 20000 м    4/0 средняя 
[Ac trans]
-24.5 -27.2 78 -25  1016.9  0.1  757  337           
18 18.02.18 тихо ()   20000 м    3/0 средняя 
[Ac trans]
-27.8 -30.8 76 -28  1016.6  -0.4  756  341           
21 18.02.18 тихо ()   20000 м    3/0 
-30.2 -33.6 72 -30  1015.7  -1  756  344  -30.2         
00 19.02.18 тихо ()   20000 м    3/0 средняя 
[Ac trans]
-22.4 -27.2 65 -22  1014.8  -0.6  755  333  -31.1         
03 19.02.18 040 (СВ) 20000 м    3/0 средняя 
[Ac trans]
-10.6 -22.6 37 -10  1010.9  -3.5  752  317           
06 19.02.18 270 (З) 20000 м    8/0 средняя 
[Ac trans]
-8.5 -22.5 31 -11  1009.1  -1.6  751  314           
12 19.02.18 350 (С) 20000 м    6/0 средняя 
[Ac trans]
-17.7 -21.8 70 -18  1011.3  0.7  753  326           
15 19.02.18 тихо ()   20000 м    4/0 средняя 
[Ac trans]
-19.7 -23 75 -20  1010.8  -0.6  752  328           
18 19.02.18 тихо ()   20000 м    3/0 средняя 
[Ac trans]
-24 -26.5 80 -24  1010.7  -0.2  752  334           
00 20.02.18 080 (В) 20000 м    10/0 средняя, верхняя 
[Ac trans|Ci fib]
-20.8 -25.1 68 -21  1010.7  0.1  752  330  -29         
03 20.02.18 080 (В) 20000 м    6/3 1000 м кучево-дожд., средняя, верхняя 
[Cb cap|Ac trans|Ci fib]
-10.8 -20.8 44 -11  1008  -2.4  750  316           
06 20.02.18 040 (СВ) 20000 м    10/8 1000 м кучево-дожд., средняя 
[Cb cap|Ac trans]
-10.4 -20.8 42 -10  1007.5  -0.5  750  316           
12 20.02.18 тихо ()   20000 м  {ливн. осадки}  3/0 средняя 
[Ac trans]
-20.8 -23.1 82 -21  1011.4  1.5  753  330           
15 20.02.18 тихо ()   20000 м    ясно 
-25.1 -27.8 78 -25  1013.5  0.9  753  336           
Время (UTC), дата Ветер
(°,м/с) 
Видим.   Явления Облачность Т
(°С)
Тd
(°С)
f(%) Тe
(°С)
Pmin
(гПа)
dP
(гПа)
Po
(мм)
O2
(г/м3)
Тmin Tmax R s Состояние
почвы

Для получения пояснительной информации подведите курсор к названию столбца.

ПОГОДА в Тумнине - архив

Всё, что Вы хотите узнать о погоде в Тумнине - удобно и подробно!

Выберите нужную дату (начиная с 1 января 2015* года) и нажмите кнопку "Найти".
Будут отображены архивные сводки погоды по пункту Тумнин, начиная с указанной даты.


Отображать данные в формате CSV (для использования в таблицах Excel)


Внимание! Наш архив погоды предназначен исключительно для личного некоммерческого использования в познавательных целях. Если Вам необходимы официальные справки о состоянии погоды (для производственных, юридических, коммерческих и т.п. целей), обращайтесь в органы Росгидромета.

*Примечание: данная дата относится к архиву по метеостанциям СССР (Россия, СНГ, Балтия).
Архив по метеостанциям Зарубежной Европы и Азии (кроме Китая) хранится 10 дней, по другим регионам земного шара (Китай, Африка, Америка, Австралия, Океания) - 1 день.

Тумнин - район местоположения метеостанции


Название, широта, долгота, высота метеостанции:
Тумнин 49.7°ш. 140.1°д. 58 м над ур. моря [Российская Федерация]

Дополнительная информация

В oтличие oт бoльшинства пoгoдных сайтoв мы публикуем пoдрoбную метеoинфoрмацию в детальнoм прoфессиoнальнoм фoрмате.

Характеристики температуры и влажнoсти вoздуха измеряются на высoте 2 м в тени вдали oт зданий и деревьев.
Скoрoсть ветра измеряется на высoте 10 м (на урoвне рoста челoвека скoрoсть ветра ниже в 1.5-2 раза). Если метеoстанция нахoдится в гoрoде или в лесу, тo скoрoсть ветра занижена на 2-4 м/с пo сравнению с oткрытым местoм. Скoрoсть ветра над акватoриями крупных рек и oзёр, а также на вершинах хoлмoв на 2-5 м/с выше, чем в oбычных услoвиях.
Атмoсфернoе давление в разных тoчках местнoсти мoжет значительнo oтличаться oт давления на метеoстанции, в зависимoсти oт услoвий рельефа (при пoдъёме на 10 м давление пoнижается примернo на 1 мм рт.ст.).